Overview Statistics Trail Chart Weather Telemetry Raw packets
 

This is the latest recevied weather packets stored in our database for station/object IU5JAE-13. If no packets are shown the sender has not sent any weather packets the latest 10 day(s).

<< 28 29 30 31 32 33 34 >>
Time Temp. Humidity Pressure Rain* Wind** Luminosity Snow
1788283531 22.78° C 69% 1019.5 hPa 0 mm - 15 W/m² -
1788282929 23.33° C 66% 1019.4 hPa 0 mm - 18 W/m² -
1788282327 23.33° C 64% 1019.3 hPa 0 mm - 21 W/m² -
1788281724 23.33° C 61% 1019.3 hPa 0 mm - 23 W/m² -
1788281122 23.89° C 60% 1019.3 hPa 0 mm - 25 W/m² -
1788280519 23.89° C 58% 1019.4 hPa 0 mm - 27 W/m² -
1788279917 24.44° C 62% 1019.4 hPa 0 mm - 29 W/m² -
1788279335 25° C 60% 1019.4 hPa 0 mm - 31 W/m² -
1788278732 25.56° C 58% 1019.6 hPa 0 mm - 68 W/m² -
1788278130 25.56° C 59% 1019.5 hPa 0 mm - 150 W/m² -
1788277527 25.56° C 61% 1019.5 hPa 0 mm - 167 W/m² -
1788276946 25.56° C 61% 1019.6 hPa 0 mm - 185 W/m² -
1788276323 26.67° C 63% 1019.7 hPa 0 mm - 203 W/m² -
1788275720 26.11° C 64% 1019.7 hPa 0 mm - 222 W/m² -
1788275425 26.11° C 64% 1019.6 hPa 0 mm - 234 W/m² -
1788274822 26.11° C 64% 1019.7 hPa 0 mm - 253 W/m² -
1788274233 26.11° C 64% 1019.6 hPa 0 mm - 270 W/m² -
1788273617 26.11° C 67% 1019.6 hPa 0 mm - 286 W/m² -
1788273035 26.67° C 69% 1019.7 hPa 0 mm - 303 W/m² -
1788272445 27.22° C 70% 1019.7 hPa 0 mm - 315 W/m² -
1788271830 26.67° C 69% 1019.8 hPa 0 mm - 337 W/m² -
1788271228 27.22° C 69% 1019.7 hPa 0 mm - 224 W/m² -
1788270625 27.22° C 69% 1019.7 hPa 0 mm - 390 W/m² -
1788270023 26.67° C 68% 1019.9 hPa 0 mm - 199 W/m² -
1788269420 26.67° C 67% 1019.8 hPa 0 mm - 472 W/m² -

* Rain latest hour (hover to see other rain measurements)
** Current wind speed in m/s (hover to see current wind gust speed)